Regional Weather Roundup
Issued by NWS

Home | Current Version | Previous Version | Graphics & Text | Print | Product List | Glossary On
Versions: 1 2 3 4 5 6 7 8 9 10 11 12 13 14 15 16 17 18 19 20 21 22 23 24 25 26 27 28 29 30 31 32 33 34 35 36 37 38 39 40 41 42 43 44 45 46 47 48 49 50
490
ASUS43 KDTX 182101
RWRMI
MICHIGAN HOURLY REGIONAL WEATHER ROUNDUP
NATIONAL WEATHER SERVICE DETROIT/PONTIAC MI
400 PM EST WED JAN 18 2017

NOTE: "FAIR" INDICATES FEW OR NO CLOUDS BELOW 12,000 FEET WITH NO
SIGNIFICANT WEATHER AND/OR OBSTRUCTION TO VISIBILITY.

MIZ047>049-052>055-059>063-066>070-074>076-081>083-182200-
SOUTHEAST LOWER MICHIGAN

CITY           SKY/WX    TMP DP  RH WIND       PRES   REMARKS
ADRIAN         CLOUDY    36  35  96 W12       30.07R WCI  28
ALMA           CLOUDY    37  36  93 SW10      30.02S WCI  30
ANN ARBOR      CLOUDY    39  36  89 SW13      30.05R WCI  31
BAD AXE        CLOUDY    35  35 100 W9        29.99F WCI  28
CARO           CLOUDY    37  35  94 SW9       30.01R WCI  30
DETROIT CITY   CLOUDY    41  37  87 W6        30.03S
DETROIT        CLOUDY    42  36  79 SW9       30.06R
FLINT          CLOUDY    38  35  89 W7        30.03S WCI  33
GROSSE ILE     CLOUDY    41  37  84 SW8       30.04S
HILLSDALE      CLOUDY    34  32  93 W7        30.05R FOG     WCI  28
HOWELL         CLOUDY    37  35  90 SW7       30.03S WCI  32

CITY           SKY/WX    TMP DP  RH WIND       PRES   REMARKS
JACKSON        CLOUDY    37  34  89 SW10      30.05R WCI  30
LAMBERTVILLE   CLOUDY    40  36  86 W7        30.08R WCI  35
LANSING        CLOUDY    39  34  82 W9        30.06R WCI  33
LAPEER         CLOUDY    37  36  94 W6G17     30.02S WCI  33
MASON          CLOUDY    37  36  94 SW7       30.04R WCI  32
MONROE         CLOUDY    40  38  91 SW14      30.06R WCI  32
MT. CLEMENS    CLOUDY    42  38  86 W9        30.02R
PONTIAC        CLOUDY    38  35  89 W7        30.01R WCI  33
PORT HOPE        N/A     36  34  92 W7G20     29.96F WCI  30
PORT HURON     CLOUDY    39  36  87 SW5       30.02S
TRI CITIES     CLOUDY    37  36  96 SW10      30.01S WCI  30
MIDLAND        CLOUDY    38  35  86 SW10      29.99F WCI  32
TROY           CLOUDY    41  36  82 W7        30.05F
SAGINAW HB     CLOUDY    37  34  87 SW10      30.01F WCI  30
$$
MIZ043>046-050>051-056>058-064>065-071>073-077>080-182200-
SOUTHWEST LOWER MICHIGAN

CITY           SKY/WX    TMP DP  RH WIND       PRES   REMARKS
BATTLE CREEK   CLOUDY    36  35  96 SW15      30.05S FOG     WCI  27
BENTON HARBOR  CLOUDY    35  33  92 SW12      30.08R FOG     WCI  27
BIG RAPIDS     CLOUDY    35  33  93 SW6       29.98S WCI  30
COLDWATER      CLOUDY    35  35 100 SW12      30.07S FOG     WCI  26
FREMONT        CLOUDY    35  35 100 SW13G20   30.02R FOG     WCI  26
HOLLAND        CLOUDY    36  34  92 SW14G22   30.07R WCI  27
GRAND RAPIDS   CLOUDY    36  34  92 W12       30.06R FOG     WCI  28
IONIA          CLOUDY    36  35  96 SW14      30.03R WCI  27
KALAMAZOO      CLOUDY    36  33  89 SW13      30.06S FOG     WCI  27
LUDINGTON      CLOUDY    35  35 100 S16G22    29.99R FOG     WCI  25
MARSHALL       CLOUDY    35  35  98 SW12      30.05S FOG     WCI  27
MOUNT PLEASANT CLOUDY    37  35  91 SW10      29.99S WCI  30
MUSKEGON       CLOUDY    37  35  92 SW15      30.05R WCI  28
SOUTH HAVEN    CLOUDY    35  34  96 SW14G23   30.07R FOG     WCI  25
$$
MIZ016>042-182200-
NORTHERN LOWER MICHIGAN

CITY           SKY/WX    TMP DP  RH WIND       PRES   REMARKS
ALPENA         SUNNY     42  32  67 SW10      29.88F
BEAVER ISLAND  CLOUDY    35  33  94 SW17G26   29.86R WCI  24
BELLAIRE       SUNNY     39  34  81 SW7       29.89F WCI  34
CADILLAC       CLOUDY    35  33  94 SW15      29.92F WCI  25
CHARLEVOIX     SUNNY     37  34  89 SW13      29.89F WCI  29
FRANKFORT      CLOUDY    36  35  96 S7G17     29.94R WCI  30
GAYLORD        SUNNY     41  31  67 SW18      29.85F
GRAYLING       SUNNY     41  34  77 S8        29.90F
HARBOR SPRINGS MOSUNNY   38  33  85 SW9       29.86S WCI  31
HOUGHTON LAKE  SUNNY     37  32  82 SW12      29.93F WCI  29
MANISTEE       CLOUDY    35  34  96 S9        29.95F WCI  28
OSCODA         CLOUDY    39  35  88 SW8       29.93F WCI  33
PELLSTON       PTSUNNY   39  32  76 SW6       29.85F WCI  35
ROGERS CITY    SUNNY     43  34  71 SW8       29.86F
TRAVERSE CITY  PTSUNNY   38  33  82 S9G17     29.90F WCI  31
$$
MIZ007>008-015-182200-
EASTERN UPPER MICHIGAN

CITY           SKY/WX    TMP DP  RH WIND       PRES   REMARKS
KINROSS        CLOUDY    35  32  88 SW10G18   29.84R WCI  27
MACKINAC ISLAN CLOUDY    34  34 100 W12G20    29.85S WCI  25
NEWBERRY       CLOUDY    32  32  97 SW14      29.82S WCI  22
S. S. MARIE    CLOUDY    36  32  85 SW13      29.83S WCI  27
MUNISING         N/A     42  31  64 S9        29.79F
$$
MIZ004>006-011>014-085-182200-
CENTRAL UPPER MICHIGAN

CITY           SKY/WX    TMP DP  RH WIND       PRES   REMARKS
MANISTIQUE     CLOUDY    33  32  97 SW7       29.84S WCI  27
ESCANABA       SUNNY     36  32  85 S8        29.84R WCI  30
SAWYER-GWINN   SUNNY     43  28  56 SW9       29.77F
$$
MIZ001>003-009>011-084-182200-
WESTERN UPPER MICHIGAN

CITY           SKY/WX    TMP DP  RH WIND       PRES   REMARKS
IRON MOUNTAIN  SUNNY     45  27  49 SW8       29.78S
HOUGHTON       SUNNY     38  26  62 W18       29.76R WCI  28
COPPER HARBOR    N/A     38  30  73 N13       29.76R WCI  30
IRONWOOD       SUNNY     46  27  47 SW10      29.79R
$$

ABBREVIATIONS USED IN REMARKS
   TC - TEMPERATURE IN CELSIUS
  WCI - WIND CHILL INDEX
   HX - HEAT INDEX
  VSB - VISIBILITY





USA.gov is the U.S. government's official web portal to all federal, state and local government web resources and services.